User: anonymous   Login
Location: Unspecified
(0.0000°N, 0.0000°E)
Time: 05:31:54
(UTC+00:00)
Language:

COSMOS 2496 - Orbit

View from above orbital plane
View from above orbital plane
View from above satellite
View from above satellite

Ground track
Ground track

The orbit data is extracted from the following two-line orbital elements,

1 39761U 14028A   17177.89639342 +.00000010 +00000-0 +00000-0 0  9999
2 39761 082.4447 001.5802 0019996 019.1027 341.0803 12.42868890140458
Epoch (UTC): 26 June 2017 21:30:48
Eccentricity: 0.0019996
inclination: 82.4447°
perigee height: 1479 km
apogee height: 1510 km
right ascension of ascending node: 1.5802°
argument of perigee: 19.1027°
revolutions per day: 12.42868890
mean anomaly at epoch: 341.0803°
orbit number at epoch: 14045

The dashed part of the orbit path shows where the satellite is in the earth's shadow,  

DLR